Terminal Aerodrome Forecast
Issued by NWS

Home | Current Version | Previous Version | Text Only | Print | Product List | Glossary On
Versions: 1 2 3 4 5 6 7 8 9 10 11 12 13 14 15 16 17 18 19 20 21 22 23 24 25 26 27 28 29 30
000
FTAK31 PAFA 300540
TAFAGA
TAF
PAGA 300540Z 3006/3106 27006KT P6SM VCSH SCT050 BKN100
     FM301200 27007KT P6SM VCSH SCT025 BKN050
     FM301800 27008KT P6SM -SHRA SCT035 BKN050=

USA.gov is the U.S. government's official web portal to all federal, state and local government web resources and services.